Weather History for KFSO - January, 2014

Change the Weather History Date:

Tuesday, January 28, 2014

  Actual Average (KPBG) Record (KPBG)
Temperature  
Mean Temperature 14 °F 16 °F  
Max Temperature 21 °F 27 °F 47 °F (1990)
Min Temperature 7 °F 6 °F -11 °F (1971)
Degree Days  
Heating Degree Days 51 49  
Month to date heating degree days 1347  
Since 1 July heating degree days 4233  
Cooling Degree Days 0 0  
Month to date cooling degree days 0  
Year to date cooling degree days 0  
Moisture  
Dew Point -8 °F    
Average Humidity 41    
Maximum Humidity 53    
Minimum Humidity 25    
Precipitation  
Precipitation 0.00 in - 0.50 in (1967)
Month to date precipitation  
Year to date precipitation  
Sea Level Pressure  
Sea Level Pressure 30.13 in    
Wind  
Wind Speed 6 mph (SW)    
Max Wind Speed 13 mph    
Max Gust Speed 23 mph    
Visibility 10 miles    
Events      
T = Trace of Precipitation, MM = Missing Value Source: NWS Daily Summary

Daily Weather History Graph

Daily Weather History Graph

Search for Another Location

Airport or City:

Trip Planner

Search our weather history database for the weather conditions in past years. The results will help you decide how hot, cold, wet, or windy it might be!

Date:

Astronomy

Jan. 28, 2014 Rise Set
Actual Time 7:16 AM EST 4:54 PM EST
Civil Twilight 6:44 AM EST 5:26 PM EST
Nautical Twilight 6:09 AM EST 6:01 PM EST
Astronomical Twilight 5:34 AM EST 6:36 PM EST
Moon 4:57 AM EST (1/28) 2:40 PM EST (1/28)
Length of Visible Light 10h 41m
Length of Day
9h 38m
Waning Crescent, 7% of the Moon is Illuminated
Jan 28
Waning Crescent
Jan 30
New
Feb 6
First Quarter
Feb 14
Full
Feb 22
Last Quarter

Hourly Weather History & Observations

Time (EST) Temp. Windchill Dew Point Humidity Pressure Visibility Wind Dir Wind Speed Gust Speed Precip Events Conditions
12:15 AM 8.2 °F 1.6 °F -11.4 °F 41% 30.00 in 10.0 mi West 3.5 mph - N/A   Clear
12:35 AM 7.7 °F - -11.2 °F 42% 30.00 in 10.0 mi Calm Calm - N/A   Clear
12:55 AM 8.2 °F -3.0 °F -13.7 °F 36% 30.00 in 10.0 mi West 6.9 mph - N/A   Clear
1:15 AM 8.2 °F -1.8 °F -15.0 °F 34% 30.01 in 10.0 mi WSW 5.8 mph - N/A   Clear
1:35 AM 8.2 °F 1.6 °F -14.8 °F 34% 30.02 in 10.0 mi WSW 3.5 mph - N/A   Clear
1:55 AM 8.2 °F 1.6 °F -14.1 °F 36% 30.02 in 10.0 mi WSW 3.5 mph - N/A   Scattered Clouds
2:15 AM 8.2 °F - -13.9 °F 36% 30.03 in 10.0 mi Calm Calm - N/A   Mostly Cloudy
2:35 AM 8.2 °F 1.6 °F -14.1 °F 36% 30.04 in 10.0 mi WSW 3.5 mph - N/A   Overcast
2:55 AM 8.2 °F -1.8 °F -14.4 °F 35% 30.04 in 10.0 mi West 5.8 mph - N/A   Overcast
3:15 AM 8.2 °F -0.3 °F -13.7 °F 36% 30.03 in 10.0 mi WSW 4.6 mph - N/A   Mostly Cloudy
3:35 AM 8.1 °F -2.0 °F -12.1 °F 40% 30.04 in 10.0 mi WSW 5.8 mph - N/A   Scattered Clouds
3:55 AM 8.2 °F -0.3 °F -11.2 °F 41% 30.04 in 10.0 mi WSW 4.6 mph - N/A   Scattered Clouds
4:15 AM 7.5 °F -1.1 °F -11.4 °F 42% 30.05 in 10.0 mi West 4.6 mph - N/A   Mostly Cloudy
4:35 AM 7.5 °F -2.6 °F -9.9 °F 45% 30.06 in 10.0 mi WSW 5.8 mph - N/A   Mostly Cloudy
4:55 AM 7.5 °F -5.0 °F -9.4 °F 46% 30.06 in 10.0 mi SW 8.1 mph - N/A   Scattered Clouds
5:15 AM 7.5 °F -1.1 °F -10.8 °F 43% 30.06 in 10.0 mi WSW 4.6 mph - N/A   Clear
5:35 AM 7.0 °F -1.7 °F -8.5 °F 49% 30.07 in 10.0 mi SW 4.6 mph - N/A   Scattered Clouds
5:55 AM 8.2 °F -1.8 °F -8.3 °F 47% 30.07 in 10.0 mi SW 5.8 mph 16.1 mph N/A   Mostly Cloudy
6:15 AM 7.7 °F -3.7 °F -8.1 °F 49% 30.08 in 10.0 mi WSW 6.9 mph - N/A   Scattered Clouds
6:35 AM 7.5 °F -3.9 °F -7.2 °F 51% 30.10 in 10.0 mi SW 6.9 mph - N/A   Mostly Cloudy
6:55 AM 8.2 °F -4.1 °F -7.6 °F 49% 30.11 in 10.0 mi SW 8.1 mph - N/A   Overcast
7:15 AM 8.2 °F -3.0 °F -8.5 °F 47% 30.12 in 10.0 mi SW 6.9 mph - N/A   Mostly Cloudy
7:35 AM 8.2 °F -5.1 °F -8.5 °F 47% 30.14 in 10.0 mi SW 9.2 mph - N/A   Mostly Cloudy
7:55 AM 8.2 °F -3.0 °F -9.2 °F 45% 30.15 in 10.0 mi WSW 6.9 mph 16.1 mph N/A   Scattered Clouds
8:15 AM 8.2 °F -0.3 °F -9.6 °F 44% 30.16 in 10.0 mi West 4.6 mph - N/A   Clear
8:35 AM 10.4 °F 0.8 °F -8.7 °F 42% 30.17 in 10.0 mi West 5.8 mph - N/A   Clear
8:55 AM 10.8 °F 0.0 °F -9.4 °F 40% 30.18 in 10.0 mi West 6.9 mph - N/A   Clear
9:15 AM 10.8 °F 1.2 °F -9.4 °F 40% 30.18 in 10.0 mi West 5.8 mph - N/A   Clear
9:35 AM 10.8 °F -1.1 °F -9.6 °F 40% 30.19 in 10.0 mi West 8.1 mph - N/A   Clear
9:55 AM 11.1 °F 3.1 °F -10.5 °F 37% 30.20 in 10.0 mi West 4.6 mph - N/A   Clear
10:15 AM 12.7 °F 0.4 °F -9.4 °F 37% 30.21 in 10.0 mi WSW 9.2 mph - N/A   Clear
10:35 AM 13.1 °F 2.8 °F -10.5 °F 34% 30.22 in 10.0 mi WSW 6.9 mph - N/A   Clear
10:55 AM 15.8 °F 7.2 °F -8.9 °F 33% 30.22 in 10.0 mi West 5.8 mph - N/A   Clear
11:15 AM 15.8 °F 4.2 °F -10.5 °F 31% 30.21 in 10.0 mi WSW 9.2 mph 16.1 mph N/A   Clear
11:35 AM 15.8 °F 5.1 °F -10.5 °F 31% 30.21 in 10.0 mi SW 8.1 mph - N/A   Scattered Clouds
11:55 AM 17.8 °F 7.5 °F -9.2 °F 30% 30.19 in 10.0 mi SW 8.1 mph - N/A   Scattered Clouds
12:15 PM 18.3 °F 8.2 °F -9.9 °F 28% 30.18 in 10.0 mi WSW 8.1 mph - N/A   Mostly Cloudy
12:35 PM 18.5 °F 8.4 °F -9.4 °F 29% 30.17 in 10.0 mi WSW 8.1 mph - N/A   Mostly Cloudy
12:55 PM 19.4 °F 12.8 °F -8.5 °F 29% 30.16 in 10.0 mi SW 4.6 mph - N/A   Scattered Clouds
1:15 PM 20.8 °F 11.2 °F -8.0 °F 28% 30.15 in 10.0 mi SW 8.1 mph - N/A   Clear
1:35 PM 21.0 °F 12.4 °F -8.5 °F 27% 30.15 in 10.0 mi WSW 6.9 mph - N/A   Scattered Clouds
1:55 PM 21.0 °F 9.9 °F -10.3 °F 25% 30.14 in 10.0 mi West 10.4 mph 16.1 mph N/A   Clear
2:15 PM 21.7 °F 13.2 °F -8.9 °F 26% 30.14 in 10.0 mi West 6.9 mph 16.1 mph N/A   Clear
2:35 PM 20.7 °F 10.2 °F -8.0 °F 28% 30.14 in 10.0 mi SW 9.2 mph - N/A   Scattered Clouds
2:55 PM 20.1 °F 8.8 °F -5.8 °F 32% 30.14 in 10.0 mi SW 10.4 mph 18.4 mph N/A   Scattered Clouds
3:15 PM 20.8 °F 8.4 °F -3.5 °F 34% 30.14 in 10.0 mi SSW 12.7 mph 20.7 mph N/A   Overcast
3:35 PM 18.5 °F 6.8 °F -6.0 °F 34% 30.15 in 10.0 mi SW 10.4 mph 23.0 mph N/A   Scattered Clouds
3:55 PM 18.3 °F 8.2 °F -4.2 °F 37% 30.15 in 10.0 mi SSW 8.1 mph 17.3 mph N/A   Clear
4:15 PM 18.3 °F 8.2 °F -4.0 °F 37% 30.16 in 10.0 mi SW 8.1 mph - N/A   Clear
4:35 PM 16.9 °F 6.4 °F -3.5 °F 41% 30.16 in 10.0 mi SW 8.1 mph - N/A   Clear
4:55 PM 15.8 °F 6.1 °F -4.2 °F 41% 30.16 in 10.0 mi SW 6.9 mph 19.6 mph N/A   Clear
5:15 PM 15.8 °F 7.2 °F -3.8 °F 42% 30.16 in 10.0 mi SW 5.8 mph - N/A   Clear
5:35 PM 15.8 °F 6.1 °F -2.2 °F 45% 30.16 in 10.0 mi SW 6.9 mph - N/A   Clear
5:55 PM 15.8 °F 8.6 °F -3.6 °F 42% 30.17 in 10.0 mi SW 4.6 mph - N/A   Clear
6:15 PM 15.8 °F 5.1 °F -2.6 °F 44% 30.17 in 10.0 mi SW 8.1 mph - N/A   Clear
6:35 PM 15.8 °F 5.1 °F -3.1 °F 43% 30.16 in 10.0 mi WSW 8.1 mph - N/A   Clear
6:55 PM 15.8 °F 4.2 °F -3.3 °F 43% 30.17 in 10.0 mi SW 9.2 mph - N/A   Clear
7:15 PM 15.8 °F 6.1 °F -3.3 °F 43% 30.17 in 10.0 mi SSW 6.9 mph - N/A   Clear
7:35 PM 15.8 °F 10.2 °F -2.6 °F 44% 30.18 in 10.0 mi South 3.5 mph - N/A   Clear
7:55 PM 13.1 °F 2.8 °F -3.1 °F 49% 30.17 in 10.0 mi South 6.9 mph - N/A   Clear
8:15 PM 13.1 °F 4.0 °F -2.7 °F 49% 30.17 in 10.0 mi South 5.8 mph - N/A   Clear
8:35 PM 13.1 °F 2.8 °F -2.7 °F 49% 30.18 in 10.0 mi SSW 6.9 mph - N/A   Clear
8:55 PM 13.1 °F 2.8 °F -3.8 °F 47% 30.17 in 10.0 mi SSW 6.9 mph - N/A   Clear
9:15 PM 12.9 °F 5.2 °F -3.1 °F 49% 30.18 in 10.0 mi South 4.6 mph - N/A   Clear
9:35 PM 11.7 °F 3.7 °F -2.7 °F 53% 30.18 in 10.0 mi SSW 4.6 mph - N/A   Clear
9:55 PM 11.1 °F 3.1 °F -3.5 °F 52% 30.18 in 10.0 mi SSW 4.6 mph - N/A   Clear
10:15 PM 11.1 °F 3.1 °F -4.0 °F 51% 30.18 in 10.0 mi SW 4.6 mph - N/A   Clear
10:35 PM 10.8 °F 4.5 °F -3.6 °F 52% 30.17 in 10.0 mi South 3.5 mph - N/A   Clear
10:55 PM 10.8 °F 4.5 °F -4.0 °F 52% 30.17 in 10.0 mi South 3.5 mph - N/A   Clear
11:15 PM 10.8 °F 4.5 °F -4.0 °F 52% 30.17 in 10.0 mi SSE 3.5 mph - N/A   Clear
11:35 PM 10.8 °F 2.7 °F -4.2 °F 51% 30.16 in 10.0 mi South 4.6 mph - N/A   Clear
11:55 PM 10.8 °F 4.5 °F -5.1 °F 49% 30.15 in 10.0 mi SSW 3.5 mph - N/A   Clear